• In Italy
  • List of Countries
  • For 7 days
  • Water Temperature
  • Satellite Maps
  • Weather Map
  • Weather Widgets
  • user-avatar
    Login

    Hourly Weather Zanzibar

    Today, 19 July, Thursday

    Time Temperature Precipitation Wind Pressure Humidity
    00:00 +24°C° 0 mm 6 mps 764 mmHg 72%
    01:00 +23°C° 0.1 mm 6 mps 763 mmHg 74%
    02:00 +23°C° 0.1 mm 6 mps 763 mmHg 76%
    03:00 +22°C° 0 mm 6 mps 763 mmHg 78%
    04:00 +22°C° 0.2 mm 6 mps 763 mmHg 79%
    05:00 +22°C° 0.2 mm 6 mps 763 mmHg 79%
    06:00 +21°C° 0.2 mm 6 mps 763 mmHg 80%
    07:00 +23°C° 0.1 mm 7 mps 764 mmHg 73%
    08:00 +24°C° 0.1 mm 7 mps 764 mmHg 66%
    09:00 +27°C° 0.1 mm 7 mps 764 mmHg 59%
    10:00 +28°C° 0 mm 7 mps 764 mmHg 53%
    11:00 +30°C° 0 mm 7 mps 764 mmHg 48%
    12:00 +33°C° 0 mm 7 mps 764 mmHg 42%
    13:00 +33°C° 0 mm 7 mps 763 mmHg 40%
    14:00 +34°C° 0 mm 7 mps 763 mmHg 39%
    15:00 +34°C° 0 mm 7 mps 762 mmHg 37%
    16:00 +33°C° 0 mm 7 mps 762 mmHg 42%
    17:00 +31°C° 0 mm 8 mps 762 mmHg 47%
    18:00 +29°C° 0 mm 8 mps 762 mmHg 51%
    19:00 +28°C° 0 mm 8 mps 762 mmHg 57%
    20:00 +27°C° 0 mm 8 mps 763 mmHg 62%
    21:00 +26°C° 0 mm 8 mps 763 mmHg 68%
    22:00 +26°C° 0 mm 7 mps 763 mmHg 71%
    23:00 +26°C° 0 mm 7 mps 764 mmHg 74%

    Tomorrow, 20 July, Friday

    Time Temperature Precipitation Wind Pressure Humidity
    00:00 +24°C° 0 mm 7 mps 764 mmHg 77%
    01:00 +24°C° 0.1 mm 6 mps 764 mmHg 79%
    02:00 +23°C° 0.1 mm 6 mps 763 mmHg 80%
    03:00 +23°C° 0.1 mm 6 mps 763 mmHg 82%
    04:00 +22°C° 0.1 mm 6 mps 763 mmHg 83%
    05:00 +22°C° 0.1 mm 5 mps 763 mmHg 84%
    06:00 +21°C° 0.1 mm 5 mps 763 mmHg 86%
    07:00 +23°C° 0 mm 5 mps 764 mmHg 80%
    08:00 +25°C° 0 mm 5 mps 764 mmHg 74%
    09:00 +27°C° 0 mm 5 mps 764 mmHg 68%
    10:00 +28°C° 0 mm 6 mps 764 mmHg 60%
    11:00 +30°C° 0 mm 6 mps 764 mmHg 52%
    12:00 +33°C° 0 mm 6 mps 764 mmHg 45%
    13:00 +33°C° 0.1 mm 6 mps 764 mmHg 46%
    14:00 +32°C° 0.1 mm 7 mps 763 mmHg 48%
    15:00 +32°C° 0.1 mm 7 mps 762 mmHg 49%
    16:00 +30°C° 0 mm 7 mps 762 mmHg 52%
    17:00 +29°C° 0 mm 7 mps 762 mmHg 56%
    18:00 +28°C° 0 mm 8 mps 762 mmHg 59%
    19:00 +28°C° 0 mm 7 mps 763 mmHg 63%
    20:00 +27°C° 0 mm 7 mps 763 mmHg 68%
    21:00 +26°C° 0 mm 7 mps 764 mmHg 72%
    22:00 +24°C° 0 mm 7 mps 764 mmHg 76%
    23:00 +24°C° 0 mm 7 mps 764 mmHg 79%

    Day after tomorrow, 21 July, Saturday

    Time Temperature Precipitation Wind Pressure Humidity
    00:00 +24°C° 0 mm 6 mps 765 mmHg 82%
    01:00 +23°C° 0.2 mm 6 mps 764 mmHg 83%
    02:00 +23°C° 0.2 mm 6 mps 764 mmHg 84%
    03:00 +23°C° 0.2 mm 6 mps 764 mmHg 85%
    04:00 +23°C° 0.3 mm 6 mps 764 mmHg 86%
    05:00 +22°C° 0.3 mm 6 mps 764 mmHg 87%
    06:00 +22°C° 0.3 mm 6 mps 764 mmHg 87%
    07:00 +23°C° 0 mm 6 mps 765 mmHg 82%
    08:00 +24°C° 0 mm 6 mps 765 mmHg 76%
    09:00 +27°C° 0 mm 6 mps 766 mmHg 70%
    10:00 +28°C° 0.1 mm 6 mps 766 mmHg 63%
    11:00 +30°C° 0.1 mm 6 mps 766 mmHg 56%
    12:00 +32°C° 0.1 mm 6 mps 766 mmHg 48%
    13:00 +32°C° 0.1 mm 6 mps 765 mmHg 49%
    14:00 +32°C° 0.1 mm 7 mps 764 mmHg 49%
    15:00 +32°C° 0.1 mm 7 mps 763 mmHg 49%
    16:00 +30°C° 0 mm 7 mps 763 mmHg 53%
    17:00 +29°C° 0 mm 7 mps 763 mmHg 56%
    18:00 +28°C° 0 mm 7 mps 763 mmHg 60%
    19:00 +27°C° 0 mm 7 mps 764 mmHg 65%
    20:00 +26°C° 0 mm 7 mps 764 mmHg 69%
    21:00 +26°C° 0 mm 7 mps 765 mmHg 73%
    22:00 +24°C° 0 mm 6 mps 765 mmHg 75%
    23:00 +24°C° 0 mm 6 mps 765 mmHg 77%

    22 July, Sunday

    Time Temperature Precipitation Wind Pressure Humidity
    00:00 +24°C° 0 mm 6 mps 765 mmHg 78%
    01:00 +23°C° 0 mm 6 mps 765 mmHg 81%
    02:00 +23°C° 0 mm 6 mps 764 mmHg 84%
    03:00 +22°C° 0 mm 5 mps 764 mmHg 87%
    04:00 +22°C° 0.1 mm 5 mps 764 mmHg 87%
    05:00 +22°C° 0.1 mm 5 mps 764 mmHg 87%
    06:00 +22°C° 0.1 mm 5 mps 765 mmHg 87%
    07:00 +23°C° 0.1 mm 5 mps 765 mmHg 84%
    08:00 +25°C° 0.1 mm 5 mps 766 mmHg 81%
    09:00 +26°C° 0.1 mm 5 mps 766 mmHg 79%
    10:00 +28°C° 0 mm 5 mps 766 mmHg 68%
    11:00 +30°C° 0 mm 5 mps 765 mmHg 58%
    12:00 +33°C° 0 mm 5 mps 765 mmHg 48%
    13:00 +33°C° 0 mm 5 mps 764 mmHg 45%
    14:00 +34°C° 0 mm 5 mps 763 mmHg 42%
    15:00 +34°C° 0 mm 5 mps 763 mmHg 39%
    16:00 +33°C° 0 mm 6 mps 763 mmHg 47%
    17:00 +31°C° 0 mm 8 mps 763 mmHg 54%
    18:00 +29°C° 0 mm 9 mps 763 mmHg 61%
    19:00 +28°C° 0 mm 8 mps 764 mmHg 66%
    20:00 +27°C° 0 mm 8 mps 764 mmHg 70%
    21:00 +26°C° 0 mm 8 mps 765 mmHg 74%
    22:00 +26°C° 0 mm 8 mps 765 mmHg 75%
    23:00 +26°C° 0 mm 8 mps 765 mmHg 76%

    23 July, Monday

    Time Temperature Precipitation Wind Pressure Humidity
    00:00 +24°C° 0 mm 7 mps 765 mmHg 78%
    01:00 +24°C° 0.1 mm 7 mps 764 mmHg 79%
    02:00 +23°C° 0.1 mm 7 mps 764 mmHg 80%
    03:00 +23°C° 0.1 mm 7 mps 764 mmHg 80%
    04:00 +23°C° 0.1 mm 7 mps 764 mmHg 81%
    05:00 +22°C° 0.1 mm 7 mps 764 mmHg 81%
    06:00 +22°C° 0.1 mm 6 mps 764 mmHg 81%
    07:00 +23°C° 0.1 mm 7 mps 765 mmHg 75%
    08:00 +26°C° 0.1 mm 7 mps 765 mmHg 68%
    09:00 +27°C° 0.1 mm 7 mps 766 mmHg 62%
    10:00 +28°C° 0.1 mm 7 mps 765 mmHg 58%
    11:00 +30°C° 0.1 mm 7 mps 765 mmHg 54%
    12:00 +32°C° 0.1 mm 7 mps 764 mmHg 49%
    13:00 +30°C° 0.1 mm 7 mps 764 mmHg 52%
    14:00 +30°C° 0.1 mm 7 mps 763 mmHg 54%
    15:00 +29°C° 0.1 mm 7 mps 762 mmHg 56%
    16:00 +29°C° 0 mm 8 mps 762 mmHg 57%
    17:00 +29°C° 0 mm 8 mps 762 mmHg 58%
    18:00 +29°C° 0 mm 8 mps 763 mmHg 59%
    19:00 +28°C° 0.1 mm 8 mps 763 mmHg 63%
    20:00 +27°C° 0.1 mm 7 mps 764 mmHg 68%
    21:00 +26°C° 0.1 mm 7 mps 764 mmHg 73%
    22:00 +26°C° 0.1 mm 7 mps 764 mmHg 73%
    23:00 +24°C° 0.1 mm 7 mps 764 mmHg 74%

    24 July, Tuesday

    Time Temperature Precipitation Wind Pressure Humidity
    00:00 +24°C° 0.1 mm 7 mps 764 mmHg 75%
    01:00 +24°C° 0.1 mm 7 mps 764 mmHg 76%
    02:00 +23°C° 0.1 mm 7 mps 763 mmHg 77%
    03:00 +23°C° 0.1 mm 7 mps 763 mmHg 78%
    04:00 +22°C° 0 mm 6 mps 763 mmHg 79%
    05:00 +22°C° 0 mm 6 mps 763 mmHg 80%
    06:00 +22°C° 0 mm 6 mps 764 mmHg 81%
    07:00 +23°C° 0.1 mm 6 mps 764 mmHg 74%
    08:00 +26°C° 0.1 mm 6 mps 765 mmHg 68%
    09:00 +27°C° 0.1 mm 6 mps 765 mmHg 62%
    10:00 +28°C° 0.1 mm 6 mps 765 mmHg 56%
    11:00 +30°C° 0.1 mm 6 mps 764 mmHg 49%
    12:00 +33°C° 0.1 mm 6 mps 764 mmHg 43%
    13:00 +33°C° 0 mm 7 mps 763 mmHg 43%
    14:00 +33°C° 0 mm 7 mps 762 mmHg 44%
    15:00 +33°C° 0 mm 7 mps 762 mmHg 44%
    16:00 +32°C° 0 mm 8 mps 762 mmHg 48%
    17:00 +31°C° 0 mm 8 mps 762 mmHg 52%
    18:00 +28°C° 0 mm 8 mps 762 mmHg 57%
    19:00 +27°C° 0 mm 8 mps 763 mmHg 61%
    20:00 +27°C° 0 mm 7 mps 763 mmHg 66%
    21:00 +26°C° 0 mm 7 mps 764 mmHg 70%
    22:00 +24°C° 0 mm 7 mps 764 mmHg 73%
    23:00 +24°C° 0 mm 6 mps 763 mmHg 75%
    Show more